Location: Newark
(49.3000°N, 9.4667°E)
Time: 21:05:21
(UTC+00:00)

Transit 2A Rocket - Pass Details

Date: 28 May 2019
Orbit: 586 x 917 km, 66.7° (Epoch: 16 June)

Event Time Altitude Azimuth Distance (km) Brightness Sun altitude
Rises 21:28:52 0° 320° (NW) 3,508 10.0 -15.0°
Reaches altitude 10° 21:32:15 10° 338° (NNW) 2,523 9.1 -15.3°
Maximum altitude 21:36:17 19° 22° (NNE) 1,904 7.6 -15.5°
Drops below altitude 10° 21:40:08 10° 66° (ENE) 2,378 7.5 -15.8°
Sets 21:43:12 0° 85° (E) 3,238 8.1 -16.0°
